| time (UTC) | temp F | wind direction | speed MPH | gust MPH | rain 1hr in | rain 24hr in | rain mn in | humidity % | barometer mb |
| 20260903232433 | 99 | 172 | 5.0 | 7.0 | 0.00 | 0.00 | 0.00 | 51 | 1009.3 |
| 20260903231932 | 99 | 182 | 3.0 | 5.0 | 0.00 | 0.00 | 0.00 | 51 | 1009.1 |
| 20260903231427 | 100 | 138 | 6.0 | 9.0 | 0.00 | 0.00 | 0.00 | 49 | 1008.9 |
| 20260903230922 | 100 | 187 | 4.0 | 6.0 | 0.00 | 0.00 | 0.00 | 48 | 1008.9 |
| 20260903230417 | 100 | 147 | 3.0 | 6.0 | 0.00 | 0.00 | 0.00 | 47 | 1008.9 |
| 20260903225914 | 101 | 173 | 3.0 | 6.0 | 0.00 | 0.00 | 0.00 | 46 | 1008.8 |
| 20260903225409 | 101 | 144 | 4.0 | 5.0 | 0.00 | 0.00 | 0.00 | 46 | 1008.9 |
| 20260903224900 | 101 | 188 | 6.0 | 7.0 | 0.00 | 0.00 | 0.00 | 45 | 1008.7 |
| 20260903224356 | 101 | 153 | 5.0 | 9.0 | 0.00 | 0.00 | 0.00 | 45 | 1008.6 |
| 20260903223852 | 101 | 135 | 2.0 | 5.0 | 0.00 | 0.00 | 0.00 | 45 | 1009.0 |
| 20260903223350 | 101 | 184 | 2.0 | 3.0 | 0.00 | 0.00 | 0.00 | 45 | 1008.8 |
| 20260903222845 | 102 | 145 | 3.0 | 3.0 | 0.00 | 0.00 | 0.00 | 43 | 1008.8 |
| 20260903222345 | 101 | 166 | 3.0 | 5.0 | 0.00 | 0.00 | 0.00 | 43 | 1008.7 |
| 20260903221839 | 103 | 132 | 3.0 | 3.0 | 0.00 | 0.00 | 0.00 | 42 | 1008.6 |
| 20260903221338 | 102 | 164 | 3.0 | 3.0 | 0.00 | 0.00 | 0.00 | 42 | 1008.7 |
| 20260903220836 | 100 | 133 | 1.0 | 1.0 | 0.00 | 0.00 | 0.00 | 43 | 1008.8 |
| 20260903220331 | 102 | 118 | 1.0 | 1.0 | 0.00 | 0.00 | 0.00 | 42 | 1009.0 |
| 20260903215828 | 105 | 144 | 2.0 | 5.0 | 0.00 | 0.00 | 0.00 | 39 | 1008.9 |
| 20260903215325 | 104 | 93 | 1.0 | 1.0 | 0.00 | 0.00 | 0.00 | 40 | 1009.1 |
| 20260903214823 | 103 | 93 | 0.0 | 1.0 | 0.00 | 0.00 | 0.00 | 39 | 1009.1 |
| 20260903214320 | 104 | 171 | 2.0 | 3.0 | 0.00 | 0.00 | 0.00 | 39 | 1009.0 |
| 20260903213814 | 104 | 199 | 2.0 | 3.0 | 0.00 | 0.00 | 0.00 | 38 | 1009.0 |
| 20260903213309 | 103 | 129 | 0.0 | 1.0 | 0.00 | 0.00 | 0.00 | 40 | 1009.1 |
| 20260903212805 | 102 | 118 | 1.0 | 2.0 | 0.00 | 0.00 | 0.00 | 41 | 1009.3 |
| 20260903212306 | 102 | 205 | 5.0 | 6.0 | 0.00 | 0.00 | 0.00 | 40 | 1009.2 |
| 20260903211800 | 103 | 227 | 9.0 | 10.0 | 0.00 | 0.00 | 0.00 | 40 | 1009.1 |
| 20260903211257 | 103 | 162 | 2.0 | 2.0 | 0.00 | 0.00 | 0.00 | 40 | 1009.3 |
| 20260903210753 | 103 | 158 | 1.0 | 1.0 | 0.00 | 0.00 | 0.00 | 40 | 1009.3 |
| 20260903210248 | 103 | 154 | 1.0 | 1.0 | 0.00 | 0.00 | 0.00 | 40 | 1009.6 |
| 20260903205747 | 102 | 208 | 3.0 | 5.0 | 0.00 | 0.00 | 0.00 | 38 | 1009.4 |
| 20260903205247 | 102 | 220 | 6.0 | 7.0 | 0.00 | 0.00 | 0.00 | 41 | 1009.4 |
| 20260903204743 | 100 | 218 | 7.0 | 8.0 | 0.00 | 0.00 | 0.00 | 42 | 1009.6 |
| 20260903204239 | 102 | 191 | 5.0 | 6.0 | 0.00 | 0.00 | 0.00 | 42 | 1009.6 |
| 20260903203734 | 102 | 207 | 6.0 | 8.0 | 0.00 | 0.00 | 0.00 | 42 | 1009.8 |
| 20260903203230 | 102 | 204 | 6.0 | 8.0 | 0.00 | 0.00 | 0.00 | 43 | 1009.8 |
| 20260903202723 | 102 | 223 | 2.0 | 5.0 | 0.00 | 0.00 | 0.00 | 43 | 1009.9 |
| 20260903202220 | 102 | 149 | 2.0 | 3.0 | 0.00 | 0.00 | 0.00 | 41 | 1009.9 |
| 20260903201719 | 104 | 196 | 3.0 | 3.0 | 0.00 | 0.00 | 0.00 | 40 | 1010.1 |
| 20260903201215 | 103 | 136 | 1.0 | 1.0 | 0.00 | 0.00 | 0.00 | 41 | 1010.2 |
| 20260903200708 | 102 | 125 | 1.0 | 2.0 | 0.00 | 0.00 | 0.00 | 42 | 1010.3 |
| 20260903200204 | 100 | 216 | 2.0 | 2.0 | 0.00 | 0.00 | 0.00 | 41 | 1010.3 |
| 20260903195659 | 100 | 323 | 4.0 | 5.0 | 0.00 | 0.00 | 0.00 | 41 | 1010.3 |
| 20260903195155 | 100 | 186 | 2.0 | 2.0 | 0.00 | 0.00 | 0.00 | 40 | 1010.4 |
| 20260903194655 | 100 | 229 | 4.0 | 5.0 | 0.00 | 0.00 | 0.00 | 41 | 1010.5 |
| 20260903194150 | 98 | 336 | 5.0 | 6.0 | 0.00 | 0.00 | 0.00 | 42 | 1010.6 |
| 20260903193645 | 98 | 254 | 6.0 | 7.0 | 0.00 | 0.00 | 0.00 | 43 | 1010.4 |
| 20260903193140 | 99 | 309 | 4.0 | 5.0 | 0.00 | 0.00 | 0.00 | 44 | 1010.6 |
| 20260903192637 | 98 | 309 | 5.0 | 6.0 | 0.00 | 0.00 | 0.00 | 43 | 1010.9 |
| 20260903192132 | 98 | 312 | 6.0 | 6.0 | 0.00 | 0.00 | 0.00 | 43 | 1010.7 |
| 20260903191628 | 99 | 332 | 3.0 | 3.0 | 0.00 | 0.00 | 0.00 | 45 | 1011.0 |
| 20260903191128 | 99 | 303 | 4.0 | 6.0 | 0.00 | 0.00 | 0.00 | 43 | 1011.0 |
| 20260903190627 | 99 | 309 | 4.0 | 5.0 | 0.00 | 0.00 | 0.00 | 43 | 1011.1 |
| 20260903190122 | 98 | 319 | 5.0 | 6.0 | 0.00 | 0.00 | 0.00 | 43 | 1011.2 |
| 20260903185617 | 97 | 20 | 2.0 | 3.0 | 0.00 | 0.00 | 0.00 | 45 | 1011.3 |
| 20260903185112 | 98 | 336 | 5.0 | 6.0 | 0.00 | 0.00 | 0.00 | 45 | 1011.4 |
| 20260903184609 | 97 | 333 | 3.0 | 3.0 | 0.00 | 0.00 | 0.00 | 46 | 1011.4 |
| 20260903184109 | 98 | 298 | 6.0 | 6.0 | 0.00 | 0.00 | 0.00 | 45 | 1011.5 |
| 20260903183608 | 97 | 192 | 2.0 | 2.0 | 0.00 | 0.00 | 0.00 | 46 | 1011.5 |
| 20260903183103 | 97 | 304 | 5.0 | 6.0 | 0.00 | 0.00 | 0.00 | 47 | 1011.7 |
| 20260903182601 | 96 | 310 | 3.0 | 3.0 | 0.00 | 0.00 | 0.00 | 48 | 1011.8 |
| 20260903182058 | 96 | 334 | 4.0 | 5.0 | 0.00 | 0.00 | 0.00 | 49 | 1011.7 |
| 20260903181556 | 95 | 318 | 4.0 | 6.0 | 0.00 | 0.00 | 0.00 | 50 | 1012.1 |
| 20260903181051 | 96 | 285 | 6.0 | 7.0 | 0.00 | 0.00 | 0.00 | 51 | 1012.0 |
| 20260903180546 | 95 | 297 | 4.0 | 5.0 | 0.00 | 0.00 | 0.00 | 51 | 1011.9 |
| 20260903180042 | 96 | 290 | 7.0 | 8.0 | 0.00 | 0.00 | 0.00 | 50 | 1012.0 |
| 20260903175540 | 96 | 16 | 4.0 | 5.0 | 0.00 | 0.00 | 0.00 | 49 | 1012.3 |
| 20260903175039 | 95 | 152 | 0.0 | 1.0 | 0.00 | 0.00 | 0.00 | 49 | 1012.3 |
| 20260903174535 | 92 | 332 | 5.0 | 6.0 | 0.00 | 0.00 | 0.00 | 54 | 1012.2 |
| 20260903174029 | 96 | 246 | 2.0 | 2.0 | 0.00 | 0.00 | 0.00 | 51 | 1012.2 |
| 20260903173524 | 95 | 314 | 2.0 | 2.0 | 0.00 | 0.00 | 0.00 | 51 | 1012.4 |
| 20260903173021 | 94 | 282 | 4.0 | 5.0 | 0.00 | 0.00 | 0.00 | 52 | 1012.3 |
| 20260903172514 | 93 | 324 | 4.0 | 5.0 | 0.00 | 0.00 | 0.00 | 55 | 1012.4 |
| 20260903172010 | 92 | 244 | 4.0 | 7.0 | 0.00 | 0.00 | 0.00 | 55 | 1012.6 |
| 20260903171505 | 93 | 287 | 7.0 | 7.0 | 0.00 | 0.00 | 0.00 | 55 | 1012.6 |
| 20260903171000 | 93 | 324 | 5.0 | 6.0 | 0.00 | 0.00 | 0.00 | 57 | 1012.8 |
| 20260903170454 | 93 | 287 | 4.0 | 5.0 | 0.00 | 0.00 | 0.00 | 54 | 1012.7 |
| 20260903165954 | 93 | 1 | 1.0 | 2.0 | 0.00 | 0.00 | 0.00 | 55 | 1012.9 |
| 20260903165447 | 92 | 51 | 2.0 | 2.0 | 0.00 | 0.00 | 0.00 | 56 | 1012.8 |
| 20260903164943 | 90 | 292 | 3.0 | 3.0 | 0.00 | 0.00 | 0.00 | 58 | 1012.6 |
| 20260903164438 | 91 | 349 | 5.0 | 6.0 | 0.00 | 0.00 | 0.00 | 59 | 1012.6 |
| 20260903163936 | 90 | 299 | 4.0 | 5.0 | 0.00 | 0.00 | 0.00 | 61 | 1012.8 |
| 20260903163433 | 91 | 348 | 1.0 | 2.0 | 0.00 | 0.00 | 0.00 | 58 | 1012.9 |
| 20260903162929 | 93 | 85 | 5.0 | 8.0 | 0.00 | 0.00 | 0.00 | 54 | 1012.6 |
| 20260903162425 | 93 | 142 | 2.0 | 2.0 | 0.00 | 0.00 | 0.00 | 53 | 1012.8 |
| 20260903161920 | 92 | 126 | 0.0 | 1.0 | 0.00 | 0.00 | 0.00 | 54 | 1012.9 |
| 20260903161415 | 90 | 322 | 2.0 | 2.0 | 0.00 | 0.00 | 0.00 | 58 | 1012.8 |
| 20260903160912 | 92 | 255 | 4.0 | 5.0 | 0.00 | 0.00 | 0.00 | 58 | 1012.7 |
| 20260903160410 | 91 | 81 | 1.0 | 1.0 | 0.00 | 0.00 | 0.00 | 56 | 1012.8 |
| 20260903155909 | 91 | 153 | 2.0 | 2.0 | 0.00 | 0.00 | 0.00 | 58 | 1012.6 |
| 20260903155404 | 89 | 176 | 2.0 | 2.0 | 0.00 | 0.00 | 0.00 | 62 | 1012.9 |
| 20260903154900 | 89 | 161 | 1.0 | 2.0 | 0.00 | 0.00 | 0.00 | 61 | 1012.6 |
| 20260903154357 | 89 | 167 | 2.0 | 3.0 | 0.00 | 0.00 | 0.00 | 61 | 1012.8 |
| 20260903153856 | 87 | 185 | 1.0 | 2.0 | 0.00 | 0.00 | 0.00 | 64 | 1012.6 |
| 20260903153352 | 87 | 213 | 5.0 | 6.0 | 0.00 | 0.00 | 0.00 | 64 | 1012.6 |
| 20260903152849 | 88 | 154 | 2.0 | 2.0 | 0.00 | 0.00 | 0.00 | 63 | 1012.5 |
| 20260903152345 | 87 | 186 | 3.0 | 3.0 | 0.00 | 0.00 | 0.00 | 65 | 1012.4 |
| 20260903151845 | 87 | 137 | 1.0 | 1.0 | 0.00 | 0.00 | 0.00 | 64 | 1012.5 |
| 20260903151341 | 89 | 169 | 2.0 | 3.0 | 0.00 | 0.00 | 0.00 | 62 | 1012.5 |
| 20260903150840 | 88 | 152 | 1.0 | 2.0 | 0.00 | 0.00 | 0.00 | 64 | 1012.7 |
| 20260903150335 | 87 | 122 | 0.0 | 0.0 | 0.00 | 0.00 | 0.00 | 66 | 1012.7 |
| 20260903145829 | 87 | 136 | 2.0 | 2.0 | 0.00 | 0.00 | 0.00 | 66 | 1012.6 |
| 20260903145325 | 86 | 134 | 2.0 | 3.0 | 0.00 | 0.00 | 0.00 | 67 | 1012.5 |
| 20260903144824 | 85 | 166 | 1.0 | 2.0 | 0.00 | 0.00 | 0.00 | 68 | 1012.8 |
| 20260903144320 | 85 | 130 | 0.0 | 1.0 | 0.00 | 0.00 | 0.00 | 69 | 1012.7 |
| 20260903143815 | 85 | 140 | 1.0 | 2.0 | 0.00 | 0.00 | 0.00 | 70 | 1012.7 |
| 20260903143312 | 84 | 125 | 1.0 | 2.0 | 0.00 | 0.00 | 0.00 | 71 | 1013.0 |
| 20260903142807 | 83 | 148 | 3.0 | 3.0 | 0.00 | 0.00 | 0.00 | 72 | 1012.9 |
| 20260903142306 | 83 | 140 | 2.0 | 2.0 | 0.00 | 0.00 | 0.00 | 73 | 1012.9 |
| 20260903141759 | 83 | 143 | 3.0 | 5.0 | 0.00 | 0.00 | 0.00 | 73 | 1013.0 |
| 20260903141254 | 82 | 134 | 3.0 | 3.0 | 0.00 | 0.00 | 0.00 | 74 | 1012.9 |
| 20260903140748 | 82 | 144 | 4.0 | 7.0 | 0.00 | 0.00 | 0.00 | 75 | 1013.2 |
| 20260903140243 | 82 | 137 | 1.0 | 1.0 | 0.00 | 0.00 | 0.00 | 75 | 1013.2 |
| 20260903135739 | 81 | 113 | 3.0 | 3.0 | 0.00 | 0.00 | 0.00 | 76 | 1013.4 |
| 20260903135234 | 81 | 127 | 3.0 | 3.0 | 0.00 | 0.00 | 0.00 | 76 | 1013.2 |
| 20260903134733 | 81 | 166 | 2.0 | 3.0 | 0.00 | 0.00 | 0.00 | 77 | 1012.9 |
| 20260903134229 | 80 | 150 | 2.0 | 3.0 | 0.00 | 0.00 | 0.00 | 77 | 1013.3 |
| 20260903133727 | 80 | 127 | 1.0 | 1.0 | 0.00 | 0.00 | 0.00 | 77 | 1013.2 |
| 20260903133223 | 80 | 146 | 2.0 | 5.0 | 0.00 | 0.00 | 0.00 | 77 | 1013.0 |
| 20260903132723 | 80 | 125 | 0.0 | 0.0 | 0.00 | 0.00 | 0.00 | 78 | 1013.2 |
| 20260903132223 | 78 | 137 | 1.0 | 1.0 | 0.00 | 0.00 | 0.00 | 80 | 1013.0 |
| 20260903131719 | 78 | 151 | 2.0 | 2.0 | 0.00 | 0.00 | 0.00 | 80 | 1013.2 |
| 20260903131218 | 78 | 98 | 1.0 | 1.0 | 0.00 | 0.00 | 0.00 | 81 | 1013.4 |
| 20260903130713 | 77 | 136 | 1.0 | 1.0 | 0.00 | 0.00 | 0.00 | 82 | 1013.2 |
| 20260903130208 | 77 | 157 | 1.0 | 2.0 | 0.00 | 0.00 | 0.00 | 83 | 1013.2 |
| 20260903125706 | 76 | 131 | 0.0 | 1.0 | 0.00 | 0.00 | 0.00 | 83 | 1013.0 |
| 20260903125201 | 76 | 150 | 1.0 | 2.0 | 0.00 | 0.00 | 0.00 | 83 | 1013.3 |
| 20260903124656 | 76 | 135 | 2.0 | 2.0 | 0.00 | 0.00 | 0.00 | 84 | 1013.2 |
| 20260903124156 | 76 | 110 | 1.0 | 1.0 | 0.00 | 0.00 | 0.00 | 84 | 1013.2 |
| 20260903123654 | 75 | 122 | 0.0 | 1.0 | 0.00 | 0.00 | 0.00 | 84 | 1012.7 |
| 20260903123154 | 75 | 105 | 2.0 | 2.0 | 0.00 | 0.00 | 0.00 | 84 | 1012.8 |
| 20260903122653 | 75 | 109 | 2.0 | 2.0 | 0.00 | 0.00 | 0.00 | 84 | 1012.8 |
| 20260903122148 | 75 | 108 | 2.0 | 2.0 | 0.00 | 0.00 | 0.00 | 84 | 1012.8 |
| 20260903121647 | 75 | 105 | 0.0 | 0.0 | 0.00 | 0.00 | 0.00 | 84 | 1012.7 |
| 20260903121143 | 75 | 129 | 0.0 | 0.0 | 0.00 | 0.00 | 0.00 | 85 | 1012.5 |
| 20260903120642 | 75 | 130 | 1.0 | 1.0 | 0.00 | 0.00 | 0.00 | 85 | 1012.6 |
| 20260903120136 | 75 | 106 | 0.0 | 0.0 | 0.00 | 0.00 | 0.00 | 84 | 1012.6 |
| 20260903115635 | 75 | 104 | 0.0 | 0.0 | 0.00 | 0.00 | 0.00 | 84 | 1012.4 |
| 20260903115130 | 76 | 112 | 2.0 | 2.0 | 0.00 | 0.00 | 0.00 | 84 | 1012.6 |
| 20260903114626 | 76 | 126 | 1.0 | 1.0 | 0.00 | 0.00 | 0.00 | 83 | 1012.6 |
| 20260903114121 | 76 | 126 | 0.0 | 1.0 | 0.00 | 0.00 | 0.00 | 83 | 1012.4 |
| 20260903113616 | 76 | 136 | 0.0 | 1.0 | 0.00 | 0.00 | 0.00 | 83 | 1012.5 |
| 20260903113112 | 76 | 104 | 3.0 | 3.0 | 0.00 | 0.00 | 0.00 | 83 | 1012.4 |
| 20260903112609 | 76 | 111 | 1.0 | 2.0 | 0.00 | 0.00 | 0.00 | 83 | 1012.4 |
| 20260903112108 | 76 | 114 | 0.0 | 0.0 | 0.00 | 0.00 | 0.00 | 83 | 1012.2 |
| 20260903111607 | 76 | 115 | 2.0 | 3.0 | 0.00 | 0.00 | 0.00 | 84 | 1012.1 |
| 20260903111103 | 75 | 79 | 1.0 | 3.0 | 0.00 | 0.00 | 0.00 | 84 | 1012.1 |
| 20260903110559 | 76 | 110 | 0.0 | 0.0 | 0.00 | 0.00 | 0.00 | 83 | 1012.2 |
| 20260903110054 | 76 | 101 | 0.0 | 0.0 | 0.00 | 0.00 | 0.00 | 83 | 1012.2 |
| 20260903105548 | 76 | 95 | 0.0 | 1.0 | 0.00 | 0.00 | 0.00 | 83 | 1012.1 |
| 20260903105044 | 76 | 99 | 0.0 | 0.0 | 0.00 | 0.00 | 0.00 | 82 | 1011.8 |
| 20260903104543 | 76 | 101 | 1.0 | 1.0 | 0.00 | 0.00 | 0.00 | 82 | 1011.9 |
| 20260903104039 | 76 | 94 | 0.0 | 0.0 | 0.00 | 0.00 | 0.00 | 82 | 1011.9 |
| 20260903103535 | 77 | 91 | 0.0 | 0.0 | 0.00 | 0.00 | 0.00 | 81 | 1012.1 |
| 20260903103031 | 77 | 78 | 1.0 | 1.0 | 0.00 | 0.00 | 0.00 | 81 | 1011.9 |
| 20260903102526 | 77 | 79 | 2.0 | 2.0 | 0.00 | 0.00 | 0.00 | 80 | 1012.0 |
| 20260903102025 | 77 | 89 | 0.0 | 1.0 | 0.00 | 0.00 | 0.00 | 80 | 1012.3 |
| 20260903101519 | 77 | 117 | 0.0 | 0.0 | 0.00 | 0.00 | 0.00 | 80 | 1012.2 |
| 20260903101016 | 77 | 98 | 0.0 | 0.0 | 0.00 | 0.00 | 0.00 | 80 | 1012.5 |
| 20260903100510 | 77 | 100 | 1.0 | 1.0 | 0.00 | 0.00 | 0.00 | 79 | 1012.3 |
| 20260903100009 | 77 | 107 | 1.0 | 1.0 | 0.00 | 0.00 | 0.00 | 79 | 1012.3 |
| 20260903095502 | 78 | 114 | 0.0 | 1.0 | 0.00 | 0.00 | 0.00 | 79 | 1012.5 |
| 20260903094957 | 78 | 114 | 0.0 | 1.0 | 0.00 | 0.00 | 0.00 | 79 | 1012.5 |
| 20260903094456 | 78 | 115 | 1.0 | 1.0 | 0.00 | 0.00 | 0.00 | 79 | 1012.4 |
| 20260903093953 | 78 | 122 | 0.0 | 0.0 | 0.00 | 0.00 | 0.00 | 79 | 1012.5 |
| 20260903093448 | 78 | 123 | 0.0 | 0.0 | 0.00 | 0.00 | 0.00 | 79 | 1012.2 |
| 20260903092943 | 78 | 123 | 0.0 | 0.0 | 0.00 | 0.00 | 0.00 | 78 | 1012.2 |
| 20260903092443 | 78 | 123 | 0.0 | 0.0 | 0.00 | 0.00 | 0.00 | 78 | 1012.4 |
| 20260903091942 | 78 | 123 | 0.0 | 0.0 | 0.00 | 0.00 | 0.00 | 78 | 1012.3 |
| 20260903091440 | 78 | 125 | 0.0 | 1.0 | 0.00 | 0.00 | 0.00 | 78 | 1012.5 |
| 20260903090936 | 78 | 128 | 1.0 | 1.0 | 0.00 | 0.00 | 0.00 | 77 | 1012.3 |
| 20260903090431 | 79 | 117 | 0.0 | 0.0 | 0.00 | 0.00 | 0.00 | 77 | 1012.4 |
| 20260903085930 | 79 | 127 | 0.0 | 1.0 | 0.00 | 0.00 | 0.00 | 77 | 1012.4 |
| 20260903085428 | 79 | 133 | 0.0 | 1.0 | 0.00 | 0.00 | 0.00 | 77 | 1012.5 |
| 20260903084928 | 79 | 135 | 1.0 | 1.0 | 0.00 | 0.00 | 0.00 | 76 | 1012.5 |
| 20260903084427 | 79 | 132 | 0.0 | 1.0 | 0.00 | 0.00 | 0.00 | 76 | 1012.7 |
| 20260903083922 | 80 | 152 | 2.0 | 3.0 | 0.00 | 0.00 | 0.00 | 76 | 1012.7 |
| 20260903083418 | 80 | 139 | 1.0 | 2.0 | 0.00 | 0.00 | 0.00 | 75 | 1012.9 |
| 20260903082917 | 80 | 157 | 2.0 | 2.0 | 0.00 | 0.00 | 0.00 | 75 | 1012.7 |
| 20260903082412 | 80 | 139 | 2.0 | 3.0 | 0.00 | 0.00 | 0.00 | 74 | 1012.8 |
| 20260903081907 | 80 | 145 | 1.0 | 2.0 | 0.00 | 0.00 | 0.00 | 74 | 1012.7 |
| 20260903081402 | 80 | 156 | 4.0 | 5.0 | 0.00 | 0.00 | 0.00 | 74 | 1013.0 |
| 20260903080859 | 80 | 133 | 3.0 | 5.0 | 0.00 | 0.00 | 0.00 | 74 | 1012.8 |
| 20260903080355 | 80 | 146 | 4.0 | 7.0 | 0.00 | 0.00 | 0.00 | 74 | 1012.8 |
| 20260903075855 | 81 | 160 | 1.0 | 2.0 | 0.00 | 0.00 | 0.00 | 74 | 1013.0 |
| 20260903075351 | 81 | 165 | 3.0 | 5.0 | 0.00 | 0.00 | 0.00 | 73 | 1012.8 |
| 20260903074845 | 81 | 138 | 1.0 | 1.0 | 0.00 | 0.00 | 0.00 | 73 | 1012.9 |
| 20260903074344 | 81 | 167 | 3.0 | 5.0 | 0.00 | 0.00 | 0.00 | 73 | 1012.7 |
| 20260903073840 | 81 | 140 | 1.0 | 1.0 | 0.00 | 0.00 | 0.00 | 72 | 1012.7 |
| 20260903073335 | 81 | 152 | 2.0 | 3.0 | 0.00 | 0.00 | 0.00 | 72 | 1012.9 |
| 20260903072831 | 82 | 151 | 2.0 | 2.0 | 0.00 | 0.00 | 0.00 | 72 | 1012.8 |
| 20260903072327 | 82 | 140 | 4.0 | 5.0 | 0.00 | 0.00 | 0.00 | 71 | 1012.9 |
| 20260903071824 | 82 | 136 | 3.0 | 3.0 | 0.00 | 0.00 | 0.00 | 71 | 1013.0 |
| 20260903071319 | 82 | 167 | 3.0 | 3.0 | 0.00 | 0.00 | 0.00 | 71 | 1012.8 |
| 20260903070814 | 82 | 160 | 3.0 | 3.0 | 0.00 | 0.00 | 0.00 | 70 | 1013.2 |
| 20260903070309 | 82 | 147 | 3.0 | 6.0 | 0.00 | 0.00 | 0.00 | 70 | 1013.0 |
| 20260903065804 | 83 | 145 | 2.0 | 3.0 | 0.00 | 0.00 | 0.00 | 69 | 1013.0 |
| 20260903065306 | 83 | 171 | 2.0 | 2.0 | 0.00 | 0.00 | 0.00 | 69 | 1013.3 |
| 20260903064803 | 83 | 149 | 3.0 | 3.0 | 0.00 | 0.00 | 0.00 | 69 | 1013.2 |
| 20260903064258 | 83 | 166 | 5.0 | 5.0 | 0.00 | 0.00 | 0.00 | 69 | 1013.0 |
| 20260903063754 | 83 | 157 | 2.0 | 3.0 | 0.00 | 0.00 | 0.00 | 68 | 1013.0 |
| 20260903063249 | 83 | 176 | 4.0 | 7.0 | 0.00 | 0.00 | 0.00 | 68 | 1013.4 |
| 20260903062745 | 84 | 136 | 1.0 | 1.0 | 0.00 | 0.00 | 0.00 | 67 | 1013.2 |
| 20260903062239 | 84 | 164 | 4.0 | 6.0 | 0.00 | 0.00 | 0.00 | 67 | 1012.8 |
| 20260903061735 | 84 | 162 | 3.0 | 3.0 | 0.00 | 0.00 | 0.00 | 67 | 1013.2 |
| 20260903061233 | 84 | 151 | 0.0 | 1.0 | 0.00 | 0.00 | 0.00 | 66 | 1013.3 |
| 20260903060729 | 84 | 146 | 1.0 | 2.0 | 0.00 | 0.00 | 0.00 | 66 | 1013.0 |
| 20260903060229 | 84 | 135 | 0.0 | 0.0 | 0.00 | 0.00 | 0.00 | 65 | 1012.8 |
| 20260903055726 | 84 | 150 | 1.0 | 3.0 | 0.00 | 0.00 | 0.00 | 65 | 1012.8 |
| 20260903055225 | 84 | 126 | 2.0 | 3.0 | 0.00 | 0.00 | 0.00 | 64 | 1012.9 |
| 20260903054721 | 85 | 163 | 2.0 | 3.0 | 0.00 | 0.00 | 0.00 | 64 | 1012.7 |
| 20260903054216 | 85 | 146 | 5.0 | 7.0 | 0.00 | 0.00 | 0.00 | 64 | 1013.0 |
| 20260903053712 | 85 | 155 | 1.0 | 2.0 | 0.00 | 0.00 | 0.00 | 64 | 1013.0 |
| 20260903053207 | 85 | 135 | 2.0 | 2.0 | 0.00 | 0.00 | 0.00 | 63 | 1013.3 |
| 20260903052703 | 85 | 153 | 2.0 | 3.0 | 0.00 | 0.00 | 0.00 | 63 | 1013.2 |
| 20260903052158 | 85 | 147 | 1.0 | 2.0 | 0.00 | 0.00 | 0.00 | 63 | 1013.2 |
| 20260903051653 | 85 | 175 | 4.0 | 6.0 | 0.00 | 0.00 | 0.00 | 63 | 1012.8 |
| 20260903051149 | 85 | 174 | 2.0 | 3.0 | 0.00 | 0.00 | 0.00 | 62 | 1013.2 |
| 20260903050644 | 86 | 145 | 2.0 | 2.0 | 0.00 | 0.00 | 0.00 | 62 | 1013.0 |
| 20260903050137 | 86 | 149 | 2.0 | 3.0 | 0.00 | 0.00 | 0.00 | 61 | 1013.3 |
| 20260903045637 | 86 | 148 | 5.0 | 7.0 | 0.00 | 0.00 | 0.00 | 60 | 1013.0 |
| 20260903045134 | 86 | 164 | 3.0 | 5.0 | 0.00 | 0.00 | 0.00 | 60 | 1013.0 |
| 20260903044630 | 86 | 154 | 3.0 | 3.0 | 0.00 | 0.00 | 0.00 | 59 | 1013.0 |
| 20260903044125 | 86 | 162 | 3.0 | 3.0 | 0.00 | 0.00 | 0.00 | 58 | 1013.2 |
| 20260903043622 | 86 | 160 | 3.0 | 5.0 | 0.00 | 0.00 | 0.00 | 58 | 1013.0 |
| 20260903043121 | 86 | 158 | 3.0 | 3.0 | 0.00 | 0.00 | 0.00 | 57 | 1013.0 |
| 20260903042620 | 87 | 129 | 3.0 | 5.0 | 0.00 | 0.00 | 0.00 | 56 | 1012.9 |
| 20260903042115 | 87 | 152 | 2.0 | 2.0 | 0.00 | 0.00 | 0.00 | 56 | 1012.9 |
| 20260903041612 | 87 | 137 | 3.0 | 3.0 | 0.00 | 0.00 | 0.00 | 56 | 1013.2 |
| 20260903041108 | 87 | 122 | 2.0 | 2.0 | 0.00 | 0.00 | 0.00 | 55 | 1012.8 |
| 20260903040606 | 87 | 165 | 2.0 | 3.0 | 0.00 | 0.00 | 0.00 | 54 | 1013.0 |
| 20260903040103 | 88 | 152 | 1.0 | 1.0 | 0.00 | 0.00 | 0.00 | 54 | 1013.0 |
| 20260903035558 | 88 | 151 | 2.0 | 2.0 | 0.00 | 0.00 | 0.00 | 53 | 1013.2 |
| 20260903035054 | 88 | 140 | 2.0 | 7.0 | 0.00 | 0.00 | 0.00 | 53 | 1012.9 |
| 20260903034549 | 88 | 154 | 3.0 | 5.0 | 0.00 | 0.00 | 0.00 | 52 | 1012.9 |
| 20260903034044 | 89 | 171 | 4.0 | 6.0 | 0.00 | 0.00 | 0.00 | 52 | 1013.0 |
| 20260903033538 | 89 | 173 | 3.0 | 5.0 | 0.00 | 0.00 | 0.00 | 51 | 1012.8 |
| 20260903033034 | 89 | 147 | 3.0 | 5.0 | 0.00 | 0.00 | 0.00 | 51 | 1012.9 |
| 20260903032529 | 89 | 152 | 1.0 | 2.0 | 0.00 | 0.00 | 0.00 | 50 | 1013.0 |
| 20260903032024 | 89 | 181 | 3.0 | 5.0 | 0.00 | 0.00 | 0.00 | 49 | 1012.6 |
| 20260903031524 | 90 | 122 | 3.0 | 3.0 | 0.00 | 0.00 | 0.00 | 48 | 1012.6 |
| 20260903031019 | 90 | 146 | 3.0 | 5.0 | 0.00 | 0.00 | 0.00 | 48 | 1012.5 |
| 20260903030515 | 90 | 137 | 1.0 | 2.0 | 0.00 | 0.00 | 0.00 | 48 | 1012.6 |
| 20260903030011 | 90 | 119 | 1.0 | 1.0 | 0.00 | 0.00 | 0.00 | 47 | 1012.6 |
| 20260903025506 | 91 | 102 | 3.0 | 5.0 | 0.00 | 0.00 | 0.00 | 47 | 1012.5 |
| 20260903025001 | 91 | 99 | 2.0 | 5.0 | 0.00 | 0.00 | 0.00 | 47 | 1012.4 |
| 20260903024500 | 91 | 97 | 3.0 | 3.0 | 0.00 | 0.00 | 0.00 | 47 | 1012.5 |
| 20260903023955 | 91 | 123 | 2.0 | 2.0 | 0.00 | 0.00 | 0.00 | 47 | 1012.4 |
| 20260903023451 | 91 | 132 | 1.0 | 2.0 | 0.00 | 0.00 | 0.00 | 46 | 1012.4 |
| 20260903022946 | 91 | 96 | 4.0 | 5.0 | 0.00 | 0.00 | 0.00 | 46 | 1012.8 |
| 20260903022445 | 91 | 163 | 2.0 | 2.0 | 0.00 | 0.00 | 0.00 | 46 | 1012.1 |
| 20260903021943 | 92 | 122 | 3.0 | 5.0 | 0.00 | 0.00 | 0.00 | 46 | 1012.1 |
| 20260903021439 | 92 | 116 | 2.0 | 2.0 | 0.00 | 0.00 | 0.00 | 46 | 1012.1 |
| 20260903020934 | 92 | 108 | 3.0 | 9.0 | 0.00 | 0.00 | 0.00 | 45 | 1012.2 |
| 20260903020430 | 92 | 109 | 2.0 | 3.0 | 0.00 | 0.00 | 0.00 | 45 | 1012.2 |
| 20260903015924 | 93 | 133 | 6.0 | 8.0 | 0.00 | 0.00 | 0.00 | 45 | 1012.2 |
| 20260903015420 | 93 | 136 | 2.0 | 2.0 | 0.00 | 0.00 | 0.00 | 45 | 1012.1 |
| 20260903014916 | 93 | 139 | 2.0 | 2.0 | 0.00 | 0.00 | 0.00 | 45 | 1012.0 |
| 20260903014414 | 93 | 83 | 3.0 | 6.0 | 0.00 | 0.00 | 0.00 | 45 | 1012.0 |
| 20260903013910 | 93 | 116 | 2.0 | 3.0 | 0.00 | 0.00 | 0.00 | 45 | 1011.9 |
| 20260903013410 | 93 | 110 | 5.0 | 7.0 | 0.00 | 0.00 | 0.00 | 45 | 1011.9 |
| 20260903012909 | 93 | 144 | 3.0 | 7.0 | 0.00 | 0.00 | 0.00 | 44 | 1011.9 |
| 20260903012408 | 94 | 132 | 2.0 | 2.0 | 0.00 | 0.00 | 0.00 | 44 | 1011.7 |
| 20260903011907 | 94 | 135 | 3.0 | 3.0 | 0.00 | 0.00 | 0.00 | 44 | 1011.7 |
| 20260903011403 | 94 | 153 | 3.0 | 6.0 | 0.00 | 0.00 | 0.00 | 43 | 1011.6 |
| 20260903010857 | 94 | 136 | 1.0 | 1.0 | 0.00 | 0.00 | 0.00 | 43 | 1011.7 |
| 20260903010353 | 94 | 125 | 4.0 | 6.0 | 0.00 | 0.00 | 0.00 | 43 | 1011.5 |
| 20260903005851 | 95 | 138 | 2.0 | 3.0 | 0.00 | 0.00 | 0.00 | 43 | 1011.5 |
| 20260903005346 | 95 | 141 | 3.0 | 5.0 | 0.00 | 0.00 | 0.00 | 42 | 1011.4 |
| 20260903004842 | 95 | 111 | 3.0 | 3.0 | 0.00 | 0.00 | 0.00 | 41 | 1011.5 |
| 20260903004338 | 96 | 112 | 1.0 | 2.0 | 0.00 | 0.00 | 0.00 | 41 | 1011.6 |
| 20260903003833 | 96 | 134 | 1.0 | 2.0 | 0.00 | 0.00 | 0.00 | 41 | 1011.5 |
| 20260903003333 | 96 | 118 | 5.0 | 7.0 | 0.00 | 0.00 | 0.00 | 40 | 1011.4 |
| 20260903002832 | 97 | 152 | 4.0 | 7.0 | 0.00 | 0.00 | 0.00 | 40 | 1011.3 |
| 20260903002327 | 98 | 134 | 3.0 | 6.0 | 0.00 | 0.00 | 0.00 | 39 | 1011.2 |
| 20260903001822 | 98 | 65 | 5.0 | 9.0 | 0.00 | 0.00 | 0.00 | 38 | 1011.2 |
| 20260903001317 | 98 | 131 | 1.0 | 3.0 | 0.00 | 0.00 | 0.00 | 38 | 1011.3 |
| 20260903000812 | 99 | 87 | 4.0 | 6.0 | 0.00 | 0.00 | 0.00 | 37 | 1011.0 |
| 20260903000306 | 100 | 74 | 4.0 | 5.0 | 0.00 | 0.00 | 0.00 | 37 | 1011.4 |
| 20260902235804 | 100 | 123 | 1.0 | 2.0 | 0.00 | 0.00 | 0.00 | 37 | 1010.9 |
| 20260902235300 | 100 | 81 | 3.0 | 3.0 | 0.00 | 0.00 | 0.00 | 36 | 1011.1 |
| 20260902234754 | 100 | 132 | 2.0 | 2.0 | 0.00 | 0.00 | 0.00 | 36 | 1011.2 |
| 20260902234253 | 101 | 118 | 3.0 | 3.0 | 0.00 | 0.00 | 0.00 | 36 | 1010.9 |
| 20260902233747 | 101 | 117 | 2.0 | 2.0 | 0.00 | 0.00 | 0.00 | 36 | 1011.3 |
| 20260902233242 | 101 | 131 | 1.0 | 2.0 | 0.00 | 0.00 | 0.00 | 36 | 1011.1 |
| 20260902232741 | 100 | 131 | 3.0 | 3.0 | 0.00 | 0.00 | 0.00 | 36 | 1011.1 |